World > North America > United States > Pennsylvania

English Center, Pennsylvania Regional Weather

Lat: 41.44N, Lon: 77.25W
Wx Zone: PAZ041Web Search
English Center Weather Warning NWS WEATHER ALERT FOR THE ENGLISH CENTER, PA AREA - Issued: 1211 PM EDT Sat May 8 2021 English Center Weather Warning  

Pass this page to a friend. Tell them to point their camera at the QR Code near the bottom of this page.

Feedback


°F Click to change English Center hourly weather to Imperial units.Click to change English Center hourly weather to Metric units. °C
English Center Weather Map
UTC Time: 5/8/2021, 16:48
Your Time:

English Center, PA Regional Weather

Expires:202105081700;;793271
ASUS41 KCTP 081610
RWRCTP

REGIONAL WEATHER ROUNDUP
NATIONAL WEATHER SERVICE STATE COLLEGE PA
1200 PM EDT SAT MAY 08 2021

Note: "fair" indicates few or no clouds below 12,000 feet with no 
significant weather and/or obstructions to visibility.

* = STATION THAT DOES NOT REPORT PRECIPITATION /E.G. RAIN...SNOW...ETC/
    THUNDER OR FOG.


PAZ004>006-010>012-017>019-024>028-033>037-041-042-045-046-049>053-081700-
CENTRAL PENNSYLVANIA
  
CITY           SKY/WX    TMP DP  RH WIND       PRES   REMARKS
BRADFORD       CLOUDY    45  35  68 NW12      29.91R                  
ST MARYS       RAIN      39  37  93 NW8       29.95R                  
DUBOIS         CLOUDY    43  39  86 W8        29.93R                  
CLEARFIELD     CLOUDY    42  39  89 W5        29.94R                  
JOHNSTOWN      LGT RAIN  39  34  82 NW20      29.93R                  
SOMERSET       LGT RAIN  41  32  70 NW10G17   29.95R                  
ALTOONA        CLOUDY    45  37  73 W14G24    29.94R                  
STATE COLLEGE  CLOUDY    46  37  71 NW12      29.91R                  
REEDSVILLE     CLOUDY    48 N/A N/A SW9G16    29.91                   
WELLSBORO      CLOUDY    43  37  81 N10       29.87S                  
WILLIAMSPORT   PTSUNNY   51  39  63 W7        29.88S                  
SELINSGROVE    PTSUNNY   50  40  68 S3        29.90S                  
FT INDIANTOWN  CLOUDY    54  39  56 W7        29.89F                  
CAPITAL CITY   CLOUDY    51  39  63 NW9       29.91S                  
HARRISBURG     PTSUNNY   52  38  58 NW12      29.90S                  
YORK           PTSUNNY   52  43  71 N8        29.91S                  
$$


SKY/WX - Weather  TMP - Temperature  DP - Dew Point  RH - Relative Humidity
WIND - Wind Direction/Speed PRES - Barometric Pressure VSB - Visibility
WCI - Wind Chill Index E13G22 Wind - East Wind 13 mph/Gusts of 22 mph